Flag for Germany Weather past 2 weeks in Gummersbach, North Rhine-Westphalia, Germany

Now
61 °F

Light rain. Broken clouds.


Feels Like: 61 °F
Forecast: 41 / 54 °F
Wind: 8 mph from Northwest

Location: Koeln / Bonn

Current Time: Sep 21, 2014 at 12:58:28 PM

Latest Report: Sep 21, 2014 at 12:20 PM


Visibility: 4 mi

Pressure: 30.01 "Hg

Humidity: 94%

Dew point: 59 °F

Location of GummersbachLocation

Historic Weather in Gummersbach — Graph

°F

Gummersbach temperature yesterday

Maximum temperature yesterday: 75 °F (at 2:50 PM)
Minimum temperature yesterday: 57 °F (at 3:20 AM)
Average temperature yesterday: 63 °F

Past Weeks' High & Low Weather Summary

 TemperatureHumidityPressure
High77 °F (Sep 17, 3:50 PM)100% (Sep 8, 3:20 AM)30.24 "Hg (Sep 8, 3:20 AM)
Low45 °F (Sep 12, 3:20 AM)44% (Sep 17, 4:20 PM)29.83 "Hg (Sep 18, 3:50 PM)
Average62 °F81%30.02 "Hg
* Reported Sep 6 11:20 AM — Sep 21 11:20 AM, Gummersbach, Weather by CustomWeather, © 2014

Note: Actual official high and low records may vary slightly from our data, if they occured in-between our weather recording intervals... More about our weather records

Advertising

Gummersbach weather history for previous 24 hours

 ConditionsComfort  
Time TempWeatherWind HumidityBarometerVisibility
11:20 AM
Sep 21
61 °FLight rain. Fog.12 mph94%29.98 "Hg2 mi
10:50 AM61 °FRain showers. Broken clouds.6 mph94%29.98 "Hg2 mi
10:20 AM63 °FLight rain. Fog.9 mph88%29.98 "Hg2 mi
9:50 AM63 °FFog.8 mph94%29.98 "Hg2 mi
9:20 AM61 °FFog.7 mph100%29.98 "Hg1 mi
8:50 AM61 °FFog.5 mph100%29.98 "Hg1 mi
8:20 AM61 °FFog.5 mph94%29.95 "Hg1 mi
7:50 AM61 °FFog.5 mph94%29.95 "Hg1 mi
7:20 AM61 °FFog.3 mph94%29.95 "Hg2 mi
6:50 AM61 °FFog.3 mph94%29.95 "Hg2 mi
6:20 AM61 °FPartly cloudy.5 mph94%29.95 "Hg3 mi
5:50 AM61 °FPartly cloudy.2 mph94%29.95 "Hg3 mi
5:20 AM61 °FLight rain. Partly cloudy.5 mph94%29.95 "HgN/A
4:50 AM61 °FPartly cloudy.5 mph94%29.95 "HgN/A
4:20 AM61 °FPartly cloudy.6 mph94%29.95 "HgN/A
3:50 AM59 °FPartly cloudy.3 mph100%29.95 "HgN/A
3:20 AM61 °FSprinkles. Passing clouds.2 mph94%29.95 "HgN/A
2:50 AM61 °FSprinkles. Passing clouds.5 mph94%29.98 "HgN/A
2:20 AM61 °FSprinkles. Partly cloudy.5 mph94%29.98 "HgN/A
1:50 AM61 °FSprinkles. Partly cloudy.6 mph94%29.98 "HgN/A
1:20 AM61 °FRain showers. Partly cloudy.7 mph94%29.98 "HgN/A
12:50 AM63 °FPartly cloudy.6 mph94%29.98 "HgN/A
12:20 AM61 °FPartly cloudy.3 mph100%29.98 "HgN/A
11:50 PM
Sep 20
61 °FPartly cloudy.3 mph94%29.98 "HgN/A
11:20 PM59 °FPartly cloudy.1 mph94%29.98 "HgN/A
10:50 PM61 °FFog.3 mph94%29.98 "HgN/A
10:20 PM61 °FFog.3 mph94%29.98 "HgN/A
9:50 PM61 °FPartly cloudy.5 mph94%29.98 "HgN/A
9:20 PM61 °FPartly cloudy.3 mph94%29.95 "HgN/A
8:50 PM61 °FPartly cloudy.5 mph94%29.98 "HgN/A
8:20 PM63 °FBroken clouds.5 mph88%29.95 "HgN/A
7:50 PM63 °FBroken clouds.5 mph94%29.95 "HgN/A
3:20 PM72 °FThundershowers. Scattered clouds.3 mph73%29.95 "HgN/A
2:50 PM75 °FScattered showers. Scattered clouds.7 mph65%29.92 "HgN/A
2:20 PM73 °FScattered clouds.5 mph69%29.95 "HgN/A
1:50 PM72 °FThundershowers. Scattered clouds.5 mph73%29.95 "HgN/A
1:20 PM72 °FBroken clouds.2 mph78%29.95 "HgN/A
12:20 PM70 °FBroken clouds.3 mph78%29.98 "HgN/A
Weather by CustomWeather, © 2014

See weather overviewHow to use our weather pages